TimeGMT,TemperatureF,Dew PointF,Humidity,Sea Level PressureIn,VisibilityMPH,Wind Direction,Wind SpeedMPH,Gust SpeedMPH,PrecipitationIn,Events,Conditions,WindDirDegrees,DateUTC
12:00 AM,44,37,70,29.95,12,South,11.5,,,,Partly Cloudy,180,2014-02-27 00:00:00
12:20 AM,42.8,39.2,87,29.92,-9999.0,SSE,11.5,-,N/A,,Clear,160,2014-02-27 00:20:00
12:50 AM,42.8,39.2,87,29.89,6.2,South,10.4,-,N/A,,Partly Cloudy,170,2014-02-27 00:50:00
1:00 AM,44,38,71,29.91,15,SSE,9.2,,,,Mostly Cloudy,160,2014-02-27 01:00:00
1:20 AM,44.6,39.2,81,29.89,6.2,South,13.8,-,N/A,,Partly Cloudy,180,2014-02-27 01:20:00
1:50 AM,44.6,39.2,81,29.86,6.2,South,13.8,-,N/A,,Unknown,180,2014-02-27 01:50:00
2:00 AM,45,38,68,29.87,15,South,15.0,,,,Mostly Cloudy,180,2014-02-27 02:00:00
2:20 AM,46.4,39.2,76,29.86,6.2,South,16.1,-,N/A,,Unknown,190,2014-02-27 02:20:00
2:50 AM,46.4,39.2,76,29.83,6.2,South,16.1,27.6,N/A,Rain,Light Rain,190,2014-02-27 02:50:00
3:00 AM,46,38,64,29.83,9,South,16.1,,,Rain,Light Rain Showers,180,2014-02-27 03:00:00
3:20 AM,44.6,39.2,81,29.80,6.2,South,16.1,-,N/A,Rain,Light Rain,190,2014-02-27 03:20:00
3:50 AM,44.6,41.0,87,29.77,6.2,South,17.3,-,N/A,Rain,Light Rain,190,2014-02-27 03:50:00
4:00 AM,44,39,78,29.78,7,South,17.3,,,Rain,Rain,180,2014-02-27 04:00:00
4:20 AM,44.6,41.0,87,29.74,6.2,South,17.3,-,N/A,Rain,Light Rain,180,2014-02-27 04:20:00
4:50 AM,44.6,41.0,87,29.71,6.2,South,20.7,-,N/A,Rain,Light Rain,180,2014-02-27 04:50:00
5:00 AM,45,40,78,29.73,6,South,20.7,,,Rain,Rain,170,2014-02-27 05:00:00
5:20 AM,44.6,41.0,87,29.68,5.6,South,18.4,-,N/A,Rain,Rain,170,2014-02-27 05:20:00
5:50 AM,44.6,42.8,93,29.68,6.2,South,18.4,-,N/A,Rain,Light Rain,180,2014-02-27 05:50:00
6:00 AM,45,41,82,29.68,9,South,17.3,,,Rain,Light Rain,170,2014-02-27 06:00:00
6:20 AM,44.6,42.8,93,29.65,6.2,South,18.4,31.1,N/A,Rain,Light Rain,180,2014-02-27 06:20:00
6:50 AM,44.6,42.8,93,29.65,3.7,South,18.4,31.1,N/A,Rain,Light Rain,180,2014-02-27 06:50:00
7:00 AM,46,42,81,29.65,3,South,16.1,,,Rain,Rain,180,2014-02-27 07:00:00
7:20 AM,46.4,42.8,87,29.62,6.2,SSW,13.8,-,N/A,Rain,Rain,200,2014-02-27 07:20:00
7:50 AM,46.4,44.6,93,29.65,6.2,WSW,13.8,-,N/A,,Scattered Clouds,240,2014-02-27 07:50:00
8:00 AM,46,43,84,29.65,25,WSW,13.8,,,Rain,Rain,240,2014-02-27 08:00:00
8:20 AM,46.4,42.8,87,29.65,6.2,West,16.1,-,N/A,,Scattered Clouds,270,2014-02-27 08:20:00
8:50 AM,46.4,41.0,81,29.68,6.2,West,15.0,-,N/A,,Partly Cloudy,270,2014-02-27 08:50:00
9:00 AM,46,39,70,29.68,16,West,13.8,,,,Scattered Clouds,270,2014-02-27 09:00:00
9:20 AM,46.4,41.0,81,29.68,-9999.0,West,16.1,-,N/A,,Clear,270,2014-02-27 09:20:00
9:50 AM,46.4,41.0,81,29.68,-9999.0,West,17.3,-,N/A,,Clear,270,2014-02-27 09:50:00
10:00 AM,47,39,67,29.70,14,West,15.0,,,,,260,2014-02-27 10:00:00
10:20 AM,48.2,41.0,76,29.71,6.2,West,18.4,-,N/A,,Partly Cloudy,270,2014-02-27 10:20:00
10:50 AM,50.0,39.2,66,29.71,6.2,West,19.6,-,N/A,,Scattered Clouds,270,2014-02-27 10:50:00
11:00 AM,49,39,58,29.72,17,West,18.4,,,,,260,2014-02-27 11:00:00
11:20 AM,50.0,39.2,66,29.71,6.2,West,19.6,-,N/A,,Scattered Clouds,270,2014-02-27 11:20:00
11:50 AM,51.8,39.2,62,29.71,6.2,West,17.3,-,N/A,,Scattered Clouds,280,2014-02-27 11:50:00
12:00 PM,50,35,46,29.73,16,West,16.1,,,,Scattered Clouds,270,2014-02-27 12:00:00
12:20 PM,51.8,37.4,58,29.71,6.2,West,19.6,-,N/A,,Scattered Clouds,270,2014-02-27 12:20:00
12:50 PM,51.8,37.4,58,29.71,6.2,West,15.0,-,N/A,,Scattered Clouds,270,2014-02-27 12:50:00
1:00 PM,52,35,39,29.72,18,West,15.0,,,,Scattered Clouds,270,2014-02-27 13:00:00
1:20 PM,50.0,35.6,58,29.71,6.2,West,17.3,-,N/A,,Scattered Clouds,260,2014-02-27 13:20:00
1:50 PM,50.0,35.6,58,29.71,6.2,West,13.8,-,N/A,,Scattered Clouds,270,2014-02-27 13:50:00
2:00 PM,50,35,43,29.71,19,West,12.7,,,Rain,Rain,260,2014-02-27 14:00:00
2:20 PM,51.8,37.4,58,29.71,6.2,West,11.5,-,N/A,,Mostly Cloudy,280,2014-02-27 14:20:00
2:50 PM,50.0,37.4,62,29.71,6.2,West,6.9,-,N/A,,Scattered Clouds,280,2014-02-27 14:50:00
3:00 PM,48,37,54,29.71,19,West,6.9,,,Rain,Light Rain Showers,280,2014-02-27 15:00:00
3:20 PM,51.8,37.4,58,29.71,6.2,West,12.7,-,N/A,,Scattered Clouds,260,2014-02-27 15:20:00
3:50 PM,50.0,33.8,54,29.71,6.2,West,17.3,-,N/A,,Partly Cloudy,260,2014-02-27 15:50:00
4:00 PM,48,35,50,29.71,25,WSW,16.1,,,Rain,Rain,250,2014-02-27 16:00:00
4:20 PM,50.0,35.6,58,29.71,6.2,WSW,15.0,-,N/A,,Unknown,240,2014-02-27 16:20:00
4:50 PM,48.2,35.6,62,29.71,6.2,WSW,13.8,-,N/A,,Partly Cloudy,240,2014-02-27 16:50:00
5:00 PM,49,35,47,29.72,19,WSW,12.7,,,,,240,2014-02-27 17:00:00
5:20 PM,46.4,37.4,71,29.71,6.2,SW,12.7,-,N/A,,Partly Cloudy,220,2014-02-27 17:20:00
5:50 PM,46.4,37.4,71,29.71,6.2,SW,12.7,-,N/A,,Partly Cloudy,220,2014-02-27 17:50:00
6:00 PM,46,37,60,29.73,19,SW,12.7,,,,Scattered Clouds,220,2014-02-27 18:00:00
6:20 PM,44.6,37.4,76,29.74,6.2,SW,11.5,-,N/A,,Partly Cloudy,230,2014-02-27 18:20:00
6:50 PM,42.8,37.4,81,29.74,6.2,SW,9.2,-,N/A,,Partly Cloudy,220,2014-02-27 18:50:00
7:00 PM,44,36,66,29.74,19,SW,10.4,,,,Scattered Clouds,220,2014-02-27 19:00:00
7:20 PM,42.8,37.4,81,29.74,6.2,SW,10.4,-,N/A,,Partly Cloudy,220,2014-02-27 19:20:00
7:50 PM,42.8,37.4,81,29.74,6.2,SW,9.2,-,N/A,,Partly Cloudy,220,2014-02-27 19:50:00
8:00 PM,42,35,69,29.73,18,SSW,9.2,,,,,210,2014-02-27 20:00:00
8:20 PM,41.0,35.6,81,29.71,6.2,SSW,9.2,-,N/A,,Partly Cloudy,210,2014-02-27 20:20:00
8:50 PM,41.0,35.6,81,29.71,-9999.0,SW,10.4,-,N/A,,Clear,230,2014-02-27 20:50:00
9:00 PM,41,35,71,29.72,22,SW,10.4,,,,,220,2014-02-27 21:00:00
9:20 PM,41.0,35.6,81,29.71,-9999.0,SW,9.2,-,N/A,,Clear,220,2014-02-27 21:20:00
9:50 PM,39.2,35.6,87,29.68,-9999.0,SSW,9.2,-,N/A,,Clear,210,2014-02-27 21:50:00
10:00 PM,40,35,75,29.70,19,SSW,9.2,,,,,200,2014-02-27 22:00:00
10:20 PM,39.2,35.6,87,29.68,-9999.0,SSW,9.2,20.7,N/A,,Clear,200,2014-02-27 22:20:00
10:50 PM,37.4,35.6,93,29.65,-9999.0,South,6.9,-,N/A,,Clear,190,2014-02-27 22:50:00
11:00 PM,39,35,78,29.67,18,South,8.1,,,,,180,2014-02-27 23:00:00
11:20 PM,37.4,35.6,93,29.65,-9999.0,South,6.9,-,N/A,,Clear,180,2014-02-27 23:20:00
11:50 PM,37.4,33.8,87,29.62,-9999.0,SSE,5.8,-,N/A,,Clear,160,2014-02-27 23:50:00